Time,TemperatureF,DewpointF,PressureIn,WindDirection,WindDirectionDegrees,WindSpeedMPH,WindSpeedGustMPH,Humidity,HourlyPrecipIn,Conditions,Clouds,dailyrainin,SoftwareType,DateUTC
2013-03-08 00:00:00,27.2,24.9,30.33,SW,219,0.0,0.0,91,0.00,,---,0.05,VWS V14.00,2013-03-08 05:00:00,
2013-03-08 00:01:00,27.2,24.9,30.33,SW,219,0.0,0.0,91,0.00,,---,0.05,VWS V14.00,2013-03-08 05:01:00,
2013-03-08 00:06:00,27.1,24.8,30.33,SW,219,0.0,0.0,91,0.00,,---,0.05,VWS V14.00,2013-03-08 05:06:00,
2013-03-08 00:11:00,27.0,24.7,30.32,SW,219,0.0,0.0,91,0.00,,---,0.00,VWS V14.00,2013-03-08 05:11:00,
2013-03-08 00:16:00,27.0,24.7,30.32,SW,219,0.0,0.0,91,0.00,,---,0.00,VWS V14.00,2013-03-08 05:16:00,
2013-03-08 00:21:00,27.0,24.7,30.31,SW,219,0.0,0.0,91,0.00,,---,0.00,VWS V14.00,2013-03-08 05:21:00,
2013-03-08 00:26:00,27.0,25.0,30.31,SW,219,0.0,0.0,92,0.00,,---,0.00,VWS V14.00,2013-03-08 05:26:00,
2013-03-08 00:31:00,27.0,25.0,30.32,SW,219,0.0,0.0,92,0.00,,---,0.00,VWS V14.00,2013-03-08 05:31:00,
2013-03-08 00:36:00,27.0,25.0,30.32,SW,219,0.0,0.0,92,0.00,,---,0.00,VWS V14.00,2013-03-08 05:36:00,
2013-03-08 00:41:00,26.9,24.9,30.32,SW,219,0.0,0.0,92,0.00,,---,0.00,VWS V14.00,2013-03-08 05:41:00,
2013-03-08 00:46:00,26.8,24.8,30.32,SW,219,0.0,0.0,92,0.00,,---,0.00,VWS V14.00,2013-03-08 05:46:00,
2013-03-08 00:51:00,26.7,24.7,30.32,SW,219,0.0,0.0,92,0.00,,---,0.00,VWS V14.00,2013-03-08 05:51:00,
2013-03-08 00:56:00,26.7,24.7,30.32,SW,219,0.0,0.0,92,0.00,,---,0.00,VWS V14.00,2013-03-08 05:56:00,
2013-03-08 01:01:00,26.6,26.6,30.32,SW,219,0.0,0.0,100,0.00,,---,0.00,VWS V14.00,2013-03-08 06:01:00,
2013-03-08 01:06:00,26.5,24.5,30.32,SW,219,0.0,0.0,92,0.00,,---,0.00,VWS V14.00,2013-03-08 06:06:00,
2013-03-08 01:11:00,26.4,24.4,30.32,SW,219,0.0,0.0,92,0.00,,---,0.00,VWS V14.00,2013-03-08 06:11:00,
2013-03-08 01:16:00,26.4,24.4,30.32,SW,219,0.0,0.0,92,0.00,,---,0.00,VWS V14.00,2013-03-08 06:16:00,
2013-03-08 01:21:00,26.3,24.3,30.31,SW,219,0.0,0.0,92,0.00,,---,0.00,VWS V14.00,2013-03-08 06:21:00,
2013-03-08 01:26:00,26.3,24.3,30.32,SW,219,0.0,0.0,92,0.00,,---,0.00,VWS V14.00,2013-03-08 06:26:00,
2013-03-08 01:31:00,26.2,24.2,30.31,SW,219,0.0,0.0,92,0.00,,---,0.00,VWS V14.00,2013-03-08 06:31:00,
2013-03-08 01:36:00,26.2,24.2,30.32,SW,219,0.0,0.0,92,0.00,,---,0.00,VWS V14.00,2013-03-08 06:36:00,
2013-03-08 01:41:00,26.2,24.2,30.32,SW,219,0.0,0.0,92,0.00,,---,0.00,VWS V14.00,2013-03-08 06:41:00,
2013-03-08 01:46:00,26.2,24.5,30.32,SW,219,0.0,0.0,93,0.00,,---,0.00,VWS V14.00,2013-03-08 06:46:00,
2013-03-08 01:51:00,26.2,24.5,30.32,SW,219,0.0,0.0,93,0.00,,---,0.00,VWS V14.00,2013-03-08 06:51:00,
2013-03-08 01:56:00,26.2,24.5,30.32,SW,219,0.0,0.0,93,0.00,,---,0.00,VWS V14.00,2013-03-08 06:56:00,
2013-03-08 02:01:00,26.1,24.4,30.32,SW,219,0.0,0.0,93,0.00,,---,0.00,VWS V14.00,2013-03-08 07:01:00,
2013-03-08 02:06:00,26.1,24.4,30.32,SW,219,0.0,0.0,93,0.00,,---,0.00,VWS V14.00,2013-03-08 07:06:00,
2013-03-08 02:11:00,26.0,24.3,30.32,SW,219,0.0,0.0,93,0.00,,---,0.00,VWS V14.00,2013-03-08 07:11:00,
2013-03-08 02:16:00,26.0,24.3,30.32,SW,219,0.0,0.0,93,0.00,,---,0.00,VWS V14.00,2013-03-08 07:16:00,
2013-03-08 02:21:00,26.0,24.3,30.32,SW,219,0.0,0.0,93,0.00,,---,0.00,VWS V14.00,2013-03-08 07:21:00,
2013-03-08 02:26:00,26.0,24.3,30.32,SW,219,0.0,0.0,93,0.00,,---,0.00,VWS V14.00,2013-03-08 07:26:00,
2013-03-08 02:31:00,25.9,24.2,30.32,SW,219,0.0,0.0,93,0.00,,---,0.00,VWS V14.00,2013-03-08 07:31:00,
2013-03-08 02:36:00,25.9,24.2,30.32,SW,219,0.0,0.0,93,0.00,,---,0.00,VWS V14.00,2013-03-08 07:36:00,
2013-03-08 02:41:00,25.8,24.1,30.32,SW,219,0.0,0.0,93,0.00,,---,0.00,VWS V14.00,2013-03-08 07:41:00,
2013-03-08 02:46:00,25.8,24.1,30.32,SW,219,0.0,0.0,93,0.00,,---,0.00,VWS V14.00,2013-03-08 07:46:00,
2013-03-08 02:51:00,25.7,24.0,30.31,SW,219,0.0,0.0,93,0.00,,---,0.00,VWS V14.00,2013-03-08 07:51:00,
2013-03-08 02:56:00,25.7,24.0,30.31,SW,219,0.0,0.0,93,0.00,,---,0.00,VWS V14.00,2013-03-08 07:56:00,
2013-03-08 03:01:00,25.6,23.9,30.31,SW,219,0.0,0.0,93,0.00,,---,0.00,VWS V14.00,2013-03-08 08:01:00,
2013-03-08 03:06:00,25.6,23.9,30.31,SW,219,0.0,0.0,93,0.00,,---,0.00,VWS V14.00,2013-03-08 08:06:00,
2013-03-08 03:11:00,25.6,23.9,30.32,SW,219,0.0,0.0,93,0.00,,---,0.00,VWS V14.00,2013-03-08 08:11:00,
2013-03-08 03:16:00,25.5,23.8,30.32,SW,219,0.0,0.0,93,0.00,,---,0.00,VWS V14.00,2013-03-08 08:16:00,
2013-03-08 03:21:00,25.5,23.8,30.32,SW,219,0.0,0.0,93,0.00,,---,0.00,VWS V14.00,2013-03-08 08:21:00,
2013-03-08 03:26:00,25.5,23.8,30.32,SW,219,0.0,0.0,93,0.00,,---,0.00,VWS V14.00,2013-03-08 08:26:00,
2013-03-08 03:31:00,25.4,23.7,30.32,SW,219,0.0,0.0,93,0.00,,---,0.00,VWS V14.00,2013-03-08 08:31:00,
2013-03-08 03:36:00,25.4,23.7,30.33,SW,219,0.0,0.0,93,0.00,,---,0.00,VWS V14.00,2013-03-08 08:36:00,
2013-03-08 03:41:00,25.3,23.6,30.33,SW,219,0.0,0.0,93,0.00,,---,0.00,VWS V14.00,2013-03-08 08:41:00,
2013-03-08 03:46:00,25.3,23.6,30.33,SW,219,0.0,0.0,93,0.00,,---,0.00,VWS V14.00,2013-03-08 08:46:00,
2013-03-08 03:51:00,25.3,23.6,30.32,SW,219,0.0,0.0,93,0.00,,---,0.00,VWS V14.00,2013-03-08 08:51:00,
2013-03-08 03:56:00,25.2,23.5,30.32,SW,219,0.0,0.0,93,0.00,,---,0.00,VWS V14.00,2013-03-08 08:56:00,
2013-03-08 04:01:00,25.2,23.5,30.32,SW,219,0.0,0.0,93,0.00,,---,0.00,VWS V14.00,2013-03-08 09:01:00,
2013-03-08 04:06:00,25.3,23.6,30.32,SW,219,0.0,0.0,93,0.00,,---,0.00,VWS V14.00,2013-03-08 09:06:00,
2013-03-08 04:11:00,25.3,23.6,30.33,SW,219,0.0,0.0,93,0.00,,---,0.00,VWS V14.00,2013-03-08 09:11:00,
2013-03-08 04:16:00,25.2,23.7,30.33,SW,219,0.0,0.0,94,0.00,,---,0.00,VWS V14.00,2013-03-08 09:16:00,
2013-03-08 04:21:00,25.2,23.7,30.33,SW,219,0.0,0.0,94,0.00,,---,0.00,VWS V14.00,2013-03-08 09:21:00,
2013-03-08 04:26:00,25.2,23.7,30.33,SW,219,0.0,0.0,94,0.00,,---,0.00,VWS V14.00,2013-03-08 09:26:00,
2013-03-08 04:31:00,25.1,23.6,30.33,SW,219,0.0,0.0,94,0.00,,---,0.00,VWS V14.00,2013-03-08 09:31:00,
2013-03-08 04:36:00,25.0,23.3,30.33,SW,219,0.0,0.0,93,0.00,,---,0.00,VWS V14.00,2013-03-08 09:36:00,
2013-03-08 04:41:00,24.9,23.4,30.33,SW,219,0.0,0.0,94,0.00,,---,0.00,VWS V14.00,2013-03-08 09:41:00,
2013-03-08 04:46:00,24.8,23.3,30.34,SW,219,0.0,0.0,94,0.00,,---,0.00,VWS V14.00,2013-03-08 09:46:00,
2013-03-08 04:51:00,24.7,23.0,30.34,SW,219,0.0,0.0,93,0.00,,---,0.00,VWS V14.00,2013-03-08 09:51:00,
2013-03-08 04:56:00,24.6,22.9,30.34,SW,219,0.0,0.0,93,0.00,,---,0.00,VWS V14.00,2013-03-08 09:56:00,
2013-03-08 05:01:00,24.5,22.8,30.34,SW,219,0.0,0.0,93,0.00,,---,0.00,VWS V14.00,2013-03-08 10:01:00,
2013-03-08 05:06:00,24.4,22.7,30.34,SW,219,0.0,0.0,93,0.00,,---,0.00,VWS V14.00,2013-03-08 10:06:00,
2013-03-08 05:11:00,24.4,22.9,30.36,SW,219,0.0,0.0,94,0.00,,---,0.00,VWS V14.00,2013-03-08 10:11:00,
2013-03-08 05:16:00,24.3,22.6,30.36,SW,219,0.0,0.0,93,0.00,,---,0.00,VWS V14.00,2013-03-08 10:16:00,
2013-03-08 05:21:00,24.3,22.6,30.36,SW,219,0.0,0.0,93,0.00,,---,0.00,VWS V14.00,2013-03-08 10:21:00,
2013-03-08 05:26:00,24.2,22.5,30.37,SW,219,0.0,0.0,93,0.00,,---,0.00,VWS V14.00,2013-03-08 10:26:00,
2013-03-08 05:31:00,24.2,22.5,30.37,SW,219,0.0,0.0,93,0.00,,---,0.00,VWS V14.00,2013-03-08 10:31:00,
2013-03-08 05:36:00,24.1,22.4,30.37,SW,219,0.0,0.0,93,0.00,,---,0.00,VWS V14.00,2013-03-08 10:36:00,
2013-03-08 05:41:00,24.0,22.3,30.37,SW,219,0.0,0.0,93,0.00,,---,0.00,VWS V14.00,2013-03-08 10:41:00,
2013-03-08 05:46:00,23.9,22.2,30.37,SW,219,0.0,0.0,93,0.00,,---,0.00,VWS V14.00,2013-03-08 10:46:00,
2013-03-08 05:51:00,23.9,22.4,30.37,SW,219,0.0,0.0,94,0.00,,---,0.00,VWS V14.00,2013-03-08 10:51:00,
2013-03-08 05:56:00,23.9,22.4,30.38,SW,219,0.0,0.0,94,0.00,,---,0.00,VWS V14.00,2013-03-08 10:56:00,
2013-03-08 06:01:00,23.8,22.3,30.38,SW,219,0.0,0.0,94,0.00,,---,0.00,VWS V14.00,2013-03-08 11:01:00,
2013-03-08 06:06:00,23.8,22.3,30.37,SW,219,0.0,0.0,94,0.00,,---,0.00,VWS V14.00,2013-03-08 11:06:00,
2013-03-08 06:11:00,23.8,22.3,30.38,SW,219,0.0,0.0,94,0.00,,---,0.00,VWS V14.00,2013-03-08 11:11:00,
2013-03-08 06:16:00,23.7,22.2,30.38,SW,219,0.0,0.0,94,0.00,,---,0.00,VWS V14.00,2013-03-08 11:16:00,
2013-03-08 06:21:00,23.7,22.2,30.38,SW,219,0.0,0.0,94,0.00,,---,0.00,VWS V14.00,2013-03-08 11:21:00,
2013-03-08 06:26:00,23.7,22.2,30.38,SW,219,0.0,0.0,94,0.00,,---,0.00,VWS V14.00,2013-03-08 11:26:00,
2013-03-08 06:31:00,23.7,22.2,30.38,SW,219,0.0,0.0,94,0.00,,---,0.00,VWS V14.00,2013-03-08 11:31:00,
2013-03-08 06:36:00,23.6,22.1,30.38,SW,219,0.0,0.0,94,0.00,,---,0.00,VWS V14.00,2013-03-08 11:36:00,
2013-03-08 06:41:00,23.6,22.1,30.38,SW,219,0.0,0.0,94,0.00,,---,0.00,VWS V14.00,2013-03-08 11:41:00,
2013-03-08 06:46:00,23.6,22.1,30.38,SW,219,0.0,0.0,94,0.00,,---,0.00,VWS V14.00,2013-03-08 11:46:00,
2013-03-08 06:51:00,23.6,22.1,30.38,SW,219,0.0,0.0,94,0.00,,---,0.00,VWS V14.00,2013-03-08 11:51:00,
2013-03-08 06:56:00,23.6,22.1,30.38,SW,219,0.0,0.0,94,0.00,,---,0.00,VWS V14.00,2013-03-08 11:56:00,
2013-03-08 07:01:00,23.6,22.1,30.38,SW,219,0.0,0.0,94,0.00,,---,0.00,VWS V14.00,2013-03-08 12:01:00,
2013-03-08 07:06:00,23.5,22.0,30.38,SW,219,0.0,0.0,94,0.00,,---,0.00,VWS V14.00,2013-03-08 12:06:00,
2013-03-08 07:11:00,23.5,22.0,30.40,SW,219,0.0,0.0,94,0.00,,---,0.00,VWS V14.00,2013-03-08 12:11:00,
2013-03-08 07:16:00,23.5,22.0,30.40,SW,219,0.0,0.0,94,0.00,,---,0.00,VWS V14.00,2013-03-08 12:16:00,
2013-03-08 07:21:00,23.5,22.0,30.40,SW,219,0.0,0.0,94,0.00,,---,0.00,VWS V14.00,2013-03-08 12:21:00,
2013-03-08 07:26:00,23.5,22.0,30.41,SW,219,0.0,0.0,94,0.00,,---,0.00,VWS V14.00,2013-03-08 12:26:00,
2013-03-08 07:31:00,23.5,22.0,30.41,SW,219,0.0,0.0,94,0.00,,---,0.00,VWS V14.00,2013-03-08 12:31:00,
2013-03-08 07:36:00,23.6,22.1,30.41,SW,219,0.0,0.0,94,0.00,,---,0.00,VWS V14.00,2013-03-08 12:36:00,
2013-03-08 07:41:00,23.7,22.2,30.41,SW,219,0.0,0.0,94,0.00,,---,0.00,VWS V14.00,2013-03-08 12:41:00,
2013-03-08 07:46:00,23.9,22.4,30.41,SW,219,0.0,0.0,94,0.00,,---,0.00,VWS V14.00,2013-03-08 12:46:00,
2013-03-08 07:51:00,24.1,22.6,30.41,SW,219,0.0,0.0,94,0.00,,---,0.00,VWS V14.00,2013-03-08 12:51:00,
2013-03-08 07:56:00,24.3,22.8,30.41,SW,219,0.0,0.0,94,0.00,,---,0.00,VWS V14.00,2013-03-08 12:56:00,
2013-03-08 08:01:00,24.5,23.0,30.41,SW,219,0.0,0.0,94,0.00,,---,0.00,VWS V14.00,2013-03-08 13:01:00,
2013-03-08 08:06:00,24.7,23.5,30.41,SW,219,0.0,0.0,95,0.00,,---,0.00,VWS V14.00,2013-03-08 13:06:00,
2013-03-08 08:11:00,24.9,23.7,30.42,SW,219,0.0,0.0,95,0.00,,---,0.00,VWS V14.00,2013-03-08 13:11:00,
2013-03-08 08:16:00,25.1,23.9,30.42,SW,219,0.0,0.0,95,0.00,,---,0.00,VWS V14.00,2013-03-08 13:16:00,
2013-03-08 08:21:00,25.3,24.1,30.42,SW,219,0.0,1.0,95,0.00,,---,0.00,VWS V14.00,2013-03-08 13:21:00,
2013-03-08 08:26:00,25.4,24.2,30.42,SSE,160,0.0,2.0,95,0.00,,---,0.00,VWS V14.00,2013-03-08 13:26:00,
2013-03-08 08:31:00,25.8,24.6,30.43,SSE,160,0.0,2.0,95,0.00,,---,0.00,VWS V14.00,2013-03-08 13:31:00,
2013-03-08 08:36:00,25.9,24.7,30.42,SSE,161,0.0,2.0,95,0.00,,---,0.00,VWS V14.00,2013-03-08 13:36:00,
2013-03-08 08:41:00,26.0,24.8,30.43,SSE,161,0.0,1.0,95,0.00,,---,0.00,VWS V14.00,2013-03-08 13:41:00,
2013-03-08 08:46:00,26.0,24.8,30.42,SSE,161,0.0,1.0,95,0.00,,---,0.00,VWS V14.00,2013-03-08 13:46:00,
2013-03-08 08:51:00,26.2,25.0,30.43,SSE,161,0.0,1.0,95,0.00,,---,0.00,VWS V14.00,2013-03-08 13:51:00,
2013-03-08 08:56:00,26.4,25.2,30.43,SSE,161,0.0,1.0,95,0.00,,---,0.00,VWS V14.00,2013-03-08 13:56:00,
2013-03-08 09:01:00,26.6,25.4,30.42,SSE,160,0.0,1.0,95,0.00,,---,0.00,VWS V14.00,2013-03-08 14:01:00,
2013-03-08 09:06:00,26.9,25.7,30.42,SSE,161,0.0,1.0,95,0.00,,---,0.00,VWS V14.00,2013-03-08 14:06:00,
2013-03-08 09:11:00,27.4,26.4,30.43,SSE,161,0.0,0.0,96,0.00,,---,0.00,VWS V14.00,2013-03-08 14:11:00,
2013-03-08 09:16:00,28.6,27.6,30.42,SSE,161,0.0,2.0,96,0.00,,---,0.00,VWS V14.00,2013-03-08 14:16:00,
2013-03-08 09:21:00,29.7,28.7,30.42,SSE,161,0.0,2.0,96,0.00,,---,0.00,VWS V14.00,2013-03-08 14:21:00,
2013-03-08 09:26:00,30.2,29.2,30.42,SSE,160,0.0,2.0,96,0.00,,---,0.00,VWS V14.00,2013-03-08 14:26:00,
2013-03-08 09:31:00,30.5,29.5,30.42,SSE,161,0.0,2.0,96,0.00,,---,0.00,VWS V14.00,2013-03-08 14:31:00,
2013-03-08 09:36:00,31.2,30.2,30.42,SSE,160,2.0,2.0,96,0.00,,---,0.00,VWS V14.00,2013-03-08 14:36:00,
2013-03-08 09:41:00,31.5,30.5,30.42,SSE,161,0.0,2.0,96,0.00,,---,0.00,VWS V14.00,2013-03-08 14:41:00,
2013-03-08 09:46:00,32.2,31.2,30.42,SSE,161,0.0,2.0,96,0.00,,---,0.00,VWS V14.00,2013-03-08 14:46:00,
2013-03-08 09:51:00,32.6,31.6,30.41,SSE,161,0.0,2.0,96,0.00,,---,0.00,VWS V14.00,2013-03-08 14:51:00,
2013-03-08 09:56:00,33.4,32.4,30.41,SSE,161,0.0,2.0,96,0.00,,---,0.00,VWS V14.00,2013-03-08 14:56:00,
2013-03-08 10:01:00,34.3,33.3,30.41,SSE,160,0.0,2.0,96,0.00,,---,0.00,VWS V14.00,2013-03-08 15:01:00,
2013-03-08 10:06:00,35.0,33.7,30.40,SSE,161,0.0,2.0,95,0.00,,---,0.00,VWS V14.00,2013-03-08 15:06:00,
2013-03-08 10:11:00,35.7,34.2,30.40,SSE,160,0.0,1.0,94,0.00,,---,0.00,VWS V14.00,2013-03-08 15:11:00,
2013-03-08 10:16:00,36.7,34.9,30.40,SSE,161,0.0,2.0,93,0.00,,---,0.00,VWS V14.00,2013-03-08 15:16:00,
2013-03-08 10:21:00,37.4,34.7,30.40,SSE,161,0.0,3.0,90,0.00,,---,0.00,VWS V14.00,2013-03-08 15:21:00,
2013-03-08 10:26:00,38.5,35.5,30.39,SSE,161,0.0,3.0,89,0.00,,---,0.00,VWS V14.00,2013-03-08 15:26:00,
2013-03-08 10:31:00,39.3,34.6,30.39,SSE,161,1.0,3.0,83,0.00,,---,0.00,VWS V14.00,2013-03-08 15:31:00,
2013-03-08 10:36:00,39.9,34.5,30.38,SSE,160,0.0,3.0,81,0.00,,---,0.00,VWS V14.00,2013-03-08 15:36:00,
2013-03-08 10:41:00,41.1,35.1,30.38,SSE,160,1.0,3.0,79,0.00,,---,0.00,VWS V14.00,2013-03-08 15:41:00,
2013-03-08 10:46:00,41.9,35.5,30.37,SSE,161,0.0,3.0,78,0.00,,---,0.00,VWS V14.00,2013-03-08 15:46:00,
2013-03-08 10:51:00,42.7,34.3,30.37,SSE,160,0.0,3.0,72,0.00,,---,0.00,VWS V14.00,2013-03-08 15:51:00,
2013-03-08 10:56:00,43.7,34.6,30.36,SSE,160,0.0,3.0,70,0.00,,---,0.00,VWS V14.00,2013-03-08 15:56:00,
2013-03-08 11:01:00,44.8,33.8,30.36,SSE,160,2.0,3.0,65,0.00,,---,0.00,VWS V14.00,2013-03-08 16:01:00,
2013-03-08 11:06:00,45.4,34.0,30.36,SE,144,0.0,3.0,64,0.00,,---,0.00,VWS V14.00,2013-03-08 16:06:00,
2013-03-08 11:11:00,46.2,35.9,30.36,East,82,3.0,5.0,67,0.00,,---,0.00,VWS V14.00,2013-03-08 16:11:00,
2013-03-08 11:16:00,46.9,32.9,30.35,SSE,161,0.0,5.0,58,0.00,,---,0.00,VWS V14.00,2013-03-08 16:16:00,
2013-03-08 11:21:00,47.9,30.2,30.35,SSE,165,0.0,5.0,50,0.00,,---,0.00,VWS V14.00,2013-03-08 16:21:00,
2013-03-08 11:26:00,48.4,26.4,30.36,South,176,1.0,5.0,42,0.00,,---,0.00,VWS V14.00,2013-03-08 16:26:00,
2013-03-08 11:31:00,49.4,32.0,30.35,ESE,104,0.0,5.0,51,0.00,,---,0.00,VWS V14.00,2013-03-08 16:31:00,
2013-03-08 11:36:00,49.9,27.7,30.35,ESE,105,3.0,5.0,42,0.00,,---,0.00,VWS V14.00,2013-03-08 16:36:00,
2013-03-08 11:41:00,50.3,24.4,30.35,SE,137,0.0,3.0,36,0.00,,---,0.00,VWS V14.00,2013-03-08 16:41:00,
2013-03-08 11:46:00,50.8,22.8,30.34,East,98,0.0,5.0,33,0.00,,---,0.00,VWS V14.00,2013-03-08 16:46:00,
2013-03-08 11:51:00,51.7,22.1,30.34,SSE,157,8.0,8.0,31,0.00,,---,0.00,VWS V14.00,2013-03-08 16:51:00,
2013-03-08 11:56:00,52.1,20.8,30.34,SE,130,0.0,8.0,29,0.00,,---,0.00,VWS V14.00,2013-03-08 16:56:00,
2013-03-08 12:01:00,52.4,20.3,30.34,SSE,168,1.0,8.0,28,0.00,,---,0.00,VWS V14.00,2013-03-08 17:01:00,
2013-03-08 12:06:00,53.0,20.8,30.33,WNW,295,1.0,8.0,28,0.00,,---,0.00,VWS V14.00,2013-03-08 17:06:00,
2013-03-08 12:11:00,53.4,21.1,30.33,SE,130,2.0,5.0,28,0.00,,---,0.00,VWS V14.00,2013-03-08 17:11:00,
2013-03-08 12:16:00,53.9,19.8,30.33,ENE,57,2.0,5.0,26,0.00,,---,0.00,VWS V14.00,2013-03-08 17:16:00,
2013-03-08 12:21:00,54.3,20.2,30.33,SE,138,0.0,10.0,26,0.00,,---,0.00,VWS V14.00,2013-03-08 17:21:00,
2013-03-08 12:26:00,54.3,21.0,30.33,ENE,60,4.0,10.0,27,0.00,,---,0.00,VWS V14.00,2013-03-08 17:26:00,
2013-03-08 12:31:00,54.3,18.3,30.33,SSE,150,1.0,10.0,24,0.00,,---,0.00,VWS V14.00,2013-03-08 17:31:00,
2013-03-08 12:36:00,55.1,21.7,30.32,SE,140,1.0,10.0,27,0.00,,---,0.00,VWS V14.00,2013-03-08 17:36:00,
2013-03-08 12:41:00,55.5,20.3,30.32,SE,126,0.0,4.0,25,0.00,,---,0.00,VWS V14.00,2013-03-08 17:41:00,
2013-03-08 12:46:00,56.0,20.7,30.32,ENE,60,1.0,7.0,25,0.00,,---,0.00,VWS V14.00,2013-03-08 17:46:00,
2013-03-08 12:51:00,56.7,20.3,30.32,ENE,64,4.0,7.0,24,0.00,,---,0.00,VWS V14.00,2013-03-08 17:51:00,
2013-03-08 12:56:00,56.4,21.0,30.32,East,96,6.0,10.0,25,0.00,,---,0.00,VWS V14.00,2013-03-08 17:56:00,
2013-03-08 13:01:00,56.1,18.8,30.32,ESE,103,0.0,13.0,23,0.00,,---,0.00,VWS V14.00,2013-03-08 18:01:00,
2013-03-08 13:06:00,56.1,19.8,30.32,SSW,211,5.0,13.0,24,0.00,,---,0.00,VWS V14.00,2013-03-08 18:06:00,
2013-03-08 13:10:00,55.6,19.4,30.32,South,178,2.0,10.0,24,0.00,,---,0.00,VWS V14.00,2013-03-08 18:10:00,
2013-03-08 13:15:00,55.3,20.1,30.32,East,85,3.0,10.0,25,0.00,,---,0.00,VWS V14.00,2013-03-08 18:15:00,
2013-03-08 13:20:00,55.7,19.5,30.31,SE,134,3.0,10.0,24,0.00,,---,0.00,VWS V14.00,2013-03-08 18:20:00,
2013-03-08 13:26:00,55.4,18.2,30.32,SSE,165,7.0,11.0,23,0.00,,---,0.00,VWS V14.00,2013-03-08 18:26:00,
2013-03-08 13:31:00,55.3,23.6,30.32,SSE,160,14.0,14.0,29,0.00,,---,0.00,VWS V14.00,2013-03-08 18:31:00,
2013-03-08 13:36:00,55.9,19.6,30.31,ESE,115,4.0,14.0,24,0.00,,---,0.00,VWS V14.00,2013-03-08 18:36:00,
2013-03-08 13:41:00,55.7,19.5,30.31,ESE,122,6.0,14.0,24,0.00,,---,0.00,VWS V14.00,2013-03-08 18:41:00,
2013-03-08 13:46:00,54.7,19.6,30.32,SE,134,8.0,16.0,25,0.00,,---,0.00,VWS V14.00,2013-03-08 18:46:00,
2013-03-08 13:51:00,53.8,19.7,30.32,SSE,167,2.0,17.0,26,0.00,,---,0.00,VWS V14.00,2013-03-08 18:51:00,
2013-03-08 13:56:00,53.6,17.7,30.31,South,183,4.0,17.0,24,0.00,,---,0.00,VWS V14.00,2013-03-08 18:56:00,
2013-03-08 14:01:00,53.6,19.6,30.31,SSE,148,9.0,17.0,26,0.00,,---,0.00,VWS V14.00,2013-03-08 19:01:00,
2013-03-08 14:06:00,53.9,19.8,30.31,South,175,14.0,17.0,26,0.00,,---,0.00,VWS V14.00,2013-03-08 19:06:00,
2013-03-08 14:11:00,53.3,20.2,30.32,South,185,1.0,11.0,27,0.00,,---,0.00,VWS V14.00,2013-03-08 19:11:00,
2013-03-08 14:16:00,53.3,19.3,30.32,SE,134,1.0,11.0,26,0.00,,---,0.00,VWS V14.00,2013-03-08 19:16:00,
2013-03-08 14:21:00,53.7,18.7,30.32,SSE,167,12.0,13.0,25,0.00,,---,0.00,VWS V14.00,2013-03-08 19:21:00,
2013-03-08 14:26:00,53.8,20.6,30.32,South,177,2.0,13.0,27,0.00,,---,0.00,VWS V14.00,2013-03-08 19:26:00,
2013-03-08 14:31:00,54.0,19.0,30.32,South,186,10.0,13.0,25,0.00,,---,0.00,VWS V14.00,2013-03-08 19:31:00,
2013-03-08 14:36:00,54.2,18.2,30.32,SSW,210,10.0,15.0,24,0.00,,---,0.00,VWS V14.00,2013-03-08 19:36:00,
2013-03-08 14:41:00,54.1,19.1,30.31,ESE,122,2.0,16.0,25,0.00,,---,0.00,VWS V14.00,2013-03-08 19:41:00,
2013-03-08 14:46:00,54.2,19.2,30.31,SE,146,6.0,16.0,25,0.00,,---,0.00,VWS V14.00,2013-03-08 19:46:00,
2013-03-08 14:51:00,54.2,20.1,30.30,SSE,165,6.0,16.0,26,0.00,,---,0.00,VWS V14.00,2013-03-08 19:51:00,
2013-03-08 14:55:00,54.3,21.9,30.30,East,98,3.0,16.0,28,0.00,,---,0.00,VWS V14.00,2013-03-08 19:55:00,
2013-03-08 15:00:00,55.1,19.9,30.30,SSE,152,6.0,16.0,25,0.00,,---,0.00,VWS V14.00,2013-03-08 20:00:00,
2013-03-08 15:05:00,56.0,22.5,30.29,ESE,123,5.0,16.0,27,0.00,,---,0.00,VWS V14.00,2013-03-08 20:05:00,
2013-03-08 15:10:00,56.2,20.9,30.30,ESE,110,5.0,9.0,25,0.00,,---,0.00,VWS V14.00,2013-03-08 20:10:00,
2013-03-08 15:15:00,55.2,18.1,30.30,SSE,148,4.0,10.0,23,0.00,,---,0.00,VWS V14.00,2013-03-08 20:15:00,
2013-03-08 15:20:00,54.8,18.7,30.29,SSE,164,6.0,13.0,24,0.00,,---,0.00,VWS V14.00,2013-03-08 20:20:00,
2013-03-08 15:25:00,54.9,19.8,30.29,SSE,163,4.0,13.0,25,0.00,,---,0.00,VWS V14.00,2013-03-08 20:25:00,
2013-03-08 15:30:00,55.0,19.8,30.29,SSE,150,5.0,13.0,25,0.00,,---,0.00,VWS V14.00,2013-03-08 20:30:00,
2013-03-08 15:35:00,54.6,16.5,30.29,SSE,164,5.0,13.0,22,0.00,,---,0.00,VWS V14.00,2013-03-08 20:35:00,
2013-03-08 15:40:00,54.6,18.5,30.29,South,180,0.0,6.0,24,0.00,,---,0.00,VWS V14.00,2013-03-08 20:40:00,
2013-03-08 15:45:00,55.1,19.0,30.28,ESE,115,5.0,11.0,24,0.00,,---,0.00,VWS V14.00,2013-03-08 20:45:00,
2013-03-08 15:50:00,55.5,18.3,30.28,SSE,154,12.0,12.0,23,0.00,,---,0.00,VWS V14.00,2013-03-08 20:50:00,
2013-03-08 15:55:00,55.4,20.2,30.28,West,271,1.0,12.0,25,0.00,,---,0.00,VWS V14.00,2013-03-08 20:55:00,
2013-03-08 16:00:00,55.6,20.4,30.28,SSE,157,5.0,12.0,25,0.00,,---,0.00,VWS V14.00,2013-03-08 21:00:00,
2013-03-08 16:05:00,55.6,19.4,30.28,East,90,4.0,12.0,24,0.00,,---,0.00,VWS V14.00,2013-03-08 21:05:00,
2013-03-08 16:10:00,55.0,19.8,30.29,SSE,165,4.0,10.0,25,0.00,,---,0.00,VWS V14.00,2013-03-08 21:10:00,
2013-03-08 16:15:00,54.6,19.5,30.29,SSE,157,10.0,12.0,25,0.00,,---,0.00,VWS V14.00,2013-03-08 21:15:00,
2013-03-08 16:20:00,54.1,19.1,30.29,SSE,161,5.0,13.0,25,0.00,,---,0.00,VWS V14.00,2013-03-08 21:20:00,
2013-03-08 16:25:00,54.0,21.6,30.28,ENE,60,3.0,13.0,28,0.00,,---,0.00,VWS V14.00,2013-03-08 21:25:00,
2013-03-08 16:30:00,54.0,21.6,30.28,SE,138,6.0,13.0,28,0.00,,---,0.00,VWS V14.00,2013-03-08 21:30:00,
2013-03-08 16:35:00,53.6,20.5,30.29,SW,232,5.0,13.0,27,0.00,,---,0.00,VWS V14.00,2013-03-08 21:35:00,
2013-03-08 16:40:00,53.3,21.0,30.29,SSE,155,9.0,11.0,28,0.00,,---,0.00,VWS V14.00,2013-03-08 21:40:00,
2013-03-08 16:45:00,53.2,22.6,30.29,SE,133,2.0,14.0,30,0.00,,---,0.00,VWS V14.00,2013-03-08 21:45:00,
2013-03-08 16:50:00,53.4,23.5,30.29,SSE,156,4.0,14.0,31,0.00,,---,0.00,VWS V14.00,2013-03-08 21:50:00,
2013-03-08 16:56:00,53.4,23.5,30.29,SSE,150,1.0,14.0,31,0.00,,---,0.00,VWS V14.00,2013-03-08 21:56:00,
2013-03-08 17:01:00,53.3,22.7,30.30,SSE,155,9.0,14.0,30,0.00,,---,0.00,VWS V14.00,2013-03-08 22:01:00,
2013-03-08 17:06:00,53.0,23.2,30.29,SSW,195,3.0,14.0,31,0.00,,---,0.00,VWS V14.00,2013-03-08 22:06:00,
2013-03-08 17:11:00,52.7,22.9,30.29,SSE,165,3.0,10.0,31,0.00,,---,0.00,VWS V14.00,2013-03-08 22:11:00,
2013-03-08 17:16:00,52.4,23.4,30.29,SE,126,5.0,10.0,32,0.00,,---,0.00,VWS V14.00,2013-03-08 22:16:00,
2013-03-08 17:21:00,52.2,22.5,30.29,SSE,161,1.0,10.0,31,0.00,,---,0.00,VWS V14.00,2013-03-08 22:21:00,
2013-03-08 17:26:00,52.0,23.1,30.29,SW,220,0.0,10.0,32,0.00,,---,0.00,VWS V14.00,2013-03-08 22:26:00,
2013-03-08 17:31:00,51.8,22.9,30.29,SE,137,0.0,10.0,32,0.00,,---,0.00,VWS V14.00,2013-03-08 22:31:00,
2013-03-08 17:36:00,51.4,23.3,30.30,ESE,123,0.0,10.0,33,0.00,,---,0.00,VWS V14.00,2013-03-08 22:36:00,
2013-03-08 17:41:00,51.2,27.1,30.30,SSE,157,0.0,3.0,39,0.00,,---,0.00,VWS V14.00,2013-03-08 22:41:00,
2013-03-08 17:46:00,50.8,22.8,30.30,South,180,12.0,12.0,33,0.00,,---,0.00,VWS V14.00,2013-03-08 22:46:00,
2013-03-08 17:51:00,50.6,21.1,30.31,SSE,154,3.0,12.0,31,0.00,,---,0.00,VWS V14.00,2013-03-08 22:51:00,
2013-03-08 17:56:00,50.6,21.9,30.31,SSE,155,1.0,12.0,32,0.00,,---,0.00,VWS V14.00,2013-03-08 22:56:00,
2013-03-08 18:01:00,50.6,21.1,30.31,SW,214,3.0,12.0,31,0.00,,---,0.00,VWS V14.00,2013-03-08 23:01:00,
2013-03-08 18:06:00,50.6,21.9,30.31,South,184,2.0,12.0,32,0.00,,---,0.00,VWS V14.00,2013-03-08 23:06:00,
2013-03-08 18:11:00,50.5,23.2,30.31,SSE,162,0.0,6.0,34,0.00,,---,0.00,VWS V14.00,2013-03-08 23:11:00,
2013-03-08 18:16:00,50.4,22.4,30.31,West,264,0.0,6.0,33,0.00,,---,0.00,VWS V14.00,2013-03-08 23:16:00,
2013-03-08 18:21:00,50.2,22.2,30.31,West,265,0.0,6.0,33,0.00,,---,0.00,VWS V14.00,2013-03-08 23:21:00,
2013-03-08 18:26:00,50.1,22.8,30.32,WSW,242,3.0,6.0,34,0.00,,---,0.00,VWS V14.00,2013-03-08 23:26:00,
2013-03-08 18:31:00,49.9,22.7,30.32,WSW,241,0.0,6.0,34,0.00,,---,0.00,VWS V14.00,2013-03-08 23:31:00,
2013-03-08 18:36:00,49.5,24.3,30.32,NNW,332,0.0,6.0,37,0.00,,---,0.00,VWS V14.00,2013-03-08 23:36:00,
2013-03-08 18:41:00,49.2,24.7,30.33,SW,234,0.0,2.0,38,0.00,,---,0.00,VWS V14.00,2013-03-08 23:41:00,
2013-03-08 18:46:00,48.9,25.0,30.32,WSW,241,0.0,2.0,39,0.00,,---,0.00,VWS V14.00,2013-03-08 23:46:00,
2013-03-08 18:51:00,48.6,25.4,30.33,WSW,241,0.0,2.0,40,0.00,,---,0.00,VWS V14.00,2013-03-08 23:51:00,
2013-03-08 18:56:00,48.4,25.2,30.33,WSW,241,0.0,2.0,40,0.00,,---,0.00,VWS V14.00,2013-03-08 23:56:00,
2013-03-08 19:01:00,48.2,24.4,30.33,NNW,348,0.0,2.0,39,0.00,,---,0.00,VWS V14.00,2013-03-09 00:01:00,
2013-03-08 19:06:00,48.0,24.9,30.33,North,360,0.0,2.0,40,0.00,,---,0.00,VWS V14.00,2013-03-09 00:06:00,
2013-03-08 19:11:00,47.9,25.4,30.33,North,360,0.0,0.0,41,0.00,,---,0.00,VWS V14.00,2013-03-09 00:11:00,
2013-03-08 19:16:00,47.6,24.5,30.33,North,350,0.0,2.0,40,0.00,,---,0.00,VWS V14.00,2013-03-09 00:16:00,
2013-03-08 19:21:00,47.5,23.2,30.33,North,351,0.0,2.0,38,0.00,,---,0.00,VWS V14.00,2013-03-09 00:21:00,
2013-03-08 19:26:00,47.4,23.1,30.33,North,350,0.0,2.0,38,0.00,,---,0.00,VWS V14.00,2013-03-09 00:26:00,
2013-03-08 19:31:00,47.2,23.5,30.34,North,350,0.0,2.0,39,0.00,,---,0.00,VWS V14.00,2013-03-09 00:31:00,
2013-03-08 19:36:00,47.0,22.7,30.34,North,350,0.0,2.0,38,0.00,,---,0.00,VWS V14.00,2013-03-09 00:36:00,
2013-03-08 19:41:00,46.6,23.0,30.34,NNW,348,0.0,1.0,39,0.00,,---,0.00,VWS V14.00,2013-03-09 00:41:00,
2013-03-08 19:46:00,46.4,23.4,30.35,North,350,0.0,1.0,40,0.00,,---,0.00,VWS V14.00,2013-03-09 00:46:00,
2013-03-08 19:51:00,46.2,23.8,30.35,North,350,0.0,1.0,41,0.00,,---,0.00,VWS V14.00,2013-03-09 00:51:00,
2013-03-08 19:56:00,46.0,24.8,30.35,North,351,0.0,1.0,43,0.00,,---,0.00,VWS V14.00,2013-03-09 00:56:00,
2013-03-08 20:01:00,45.6,25.0,30.35,North,351,0.0,1.0,44,0.00,,---,0.00,VWS V14.00,2013-03-09 01:01:00,
2013-03-08 20:06:00,45.3,24.7,30.35,North,350,0.0,1.0,44,0.00,,---,0.00,VWS V14.00,2013-03-09 01:06:00,
2013-03-08 20:11:00,45.0,24.4,30.34,North,351,0.0,0.0,44,0.00,,---,0.00,VWS V14.00,2013-03-09 01:11:00,
2013-03-08 20:16:00,44.9,24.9,30.34,North,350,0.0,0.0,45,0.00,,---,0.00,VWS V14.00,2013-03-09 01:16:00,
2013-03-08 20:21:00,44.7,24.7,30.34,North,351,0.0,0.0,45,0.00,,---,0.00,VWS V14.00,2013-03-09 01:21:00,
2013-03-08 20:25:00,44.5,24.0,30.34,North,351,0.0,0.0,44,0.00,,---,0.00,VWS V14.00,2013-03-09 01:25:00,
2013-03-08 20:31:00,44.1,24.7,30.35,North,350,0.0,0.0,46,0.00,,---,0.00,VWS V14.00,2013-03-09 01:31:00,
2013-03-08 20:36:00,43.8,24.9,30.35,North,351,0.0,0.0,47,0.00,,---,0.00,VWS V14.00,2013-03-09 01:36:00,
2013-03-08 20:41:00,43.4,23.5,30.35,North,351,0.0,0.0,45,0.00,,---,0.00,VWS V14.00,2013-03-09 01:41:00,
2013-03-08 20:46:00,43.1,23.2,30.35,North,350,0.0,2.0,45,0.00,,---,0.00,VWS V14.00,2013-03-09 01:46:00,
2013-03-08 20:50:00,42.8,22.4,30.35,North,350,0.0,2.0,44,0.00,,---,0.00,VWS V14.00,2013-03-09 01:50:00,
2013-03-08 20:55:00,42.7,23.9,30.35,North,351,0.0,2.0,47,0.00,,---,0.00,VWS V14.00,2013-03-09 01:55:00,
2013-03-08 21:00:00,42.6,24.3,30.35,North,351,0.0,2.0,48,0.00,,---,0.00,VWS V14.00,2013-03-09 02:00:00,
2013-03-08 21:05:00,42.4,24.1,30.35,North,350,0.0,2.0,48,0.00,,---,0.00,VWS V14.00,2013-03-09 02:05:00,
2013-03-08 21:10:00,42.3,24.0,30.34,North,351,0.0,1.0,48,0.00,,---,0.00,VWS V14.00,2013-03-09 02:10:00,
2013-03-08 21:16:00,42.1,23.8,30.34,North,351,0.0,1.0,48,0.00,,---,0.00,VWS V14.00,2013-03-09 02:16:00,
2013-03-08 21:20:00,41.9,23.2,30.34,North,351,0.0,1.0,47,0.00,,---,0.00,VWS V14.00,2013-03-09 02:20:00,
2013-03-08 21:25:00,41.6,23.9,30.34,North,351,0.0,1.0,49,0.00,,---,0.00,VWS V14.00,2013-03-09 02:25:00,
2013-03-08 21:30:00,41.5,23.8,30.34,North,350,0.0,1.0,49,0.00,,---,0.00,VWS V14.00,2013-03-09 02:30:00,
2013-03-08 21:35:00,41.3,24.5,30.34,North,351,0.0,1.0,51,0.00,,---,0.00,VWS V14.00,2013-03-09 02:35:00,
2013-03-08 21:40:00,41.2,24.5,30.34,North,351,0.0,0.0,51,0.00,,---,0.00,VWS V14.00,2013-03-09 02:40:00,
2013-03-08 21:45:00,41.0,24.3,30.34,North,351,0.0,0.0,51,0.00,,---,0.00,VWS V14.00,2013-03-09 02:45:00,
2013-03-08 21:50:00,40.7,24.0,30.34,North,351,0.0,0.0,51,0.00,,---,0.00,VWS V14.00,2013-03-09 02:50:00,
2013-03-08 21:55:00,40.4,24.6,30.34,North,350,0.0,0.0,53,0.00,,---,0.00,VWS V14.00,2013-03-09 02:55:00,
2013-03-08 22:00:00,40.2,23.1,30.35,North,351,0.0,0.0,50,0.00,,---,0.00,VWS V14.00,2013-03-09 03:00:00,
2013-03-08 22:05:00,40.0,23.4,30.35,North,351,0.0,0.0,51,0.00,,---,0.00,VWS V14.00,2013-03-09 03:05:00,
2013-03-08 22:10:00,39.8,23.6,30.31,North,351,0.0,0.0,52,0.00,,---,0.00,VWS V14.00,2013-03-09 03:10:00,
2013-03-08 22:15:00,39.7,24.0,30.31,North,350,0.0,0.0,53,0.00,,---,0.00,VWS V14.00,2013-03-09 03:15:00,
2013-03-08 22:20:00,39.5,23.8,30.31,North,351,0.0,0.0,53,0.00,,---,0.00,VWS V14.00,2013-03-09 03:20:00,
2013-03-08 22:25:00,39.4,24.1,30.31,North,351,0.0,0.0,54,0.00,,---,0.00,VWS V14.00,2013-03-09 03:25:00,
2013-03-08 22:30:00,39.4,23.7,30.32,North,350,0.0,0.0,53,0.00,,---,0.00,VWS V14.00,2013-03-09 03:30:00,
2013-03-08 22:35:00,39.3,23.6,30.32,North,351,0.0,0.0,53,0.00,,---,0.00,VWS V14.00,2013-03-09 03:35:00,
2013-03-08 22:40:00,39.2,24.0,30.32,North,350,0.0,0.0,54,0.00,,---,0.00,VWS V14.00,2013-03-09 03:40:00,
2013-03-08 22:45:00,39.2,24.4,30.32,North,351,0.0,0.0,55,0.00,,---,0.00,VWS V14.00,2013-03-09 03:45:00,
2013-03-08 22:50:00,39.1,24.3,30.32,North,351,0.0,0.0,55,0.00,,---,0.00,VWS V14.00,2013-03-09 03:50:00,
2013-03-08 22:55:00,39.0,24.6,30.32,North,350,0.0,0.0,56,0.00,,---,0.00,VWS V14.00,2013-03-09 03:55:00,
2013-03-08 23:00:00,38.9,24.6,30.32,North,350,0.0,0.0,56,0.00,,---,0.00,VWS V14.00,2013-03-09 04:00:00,
2013-03-08 23:05:00,38.9,24.6,30.32,North,351,0.0,0.0,56,0.00,,---,0.00,VWS V14.00,2013-03-09 04:05:00,
2013-03-08 23:10:00,38.8,24.0,30.29,North,351,0.0,0.0,55,0.00,,---,0.00,VWS V14.00,2013-03-09 04:10:00,
2013-03-08 23:15:00,38.8,24.9,30.29,North,351,0.0,0.0,57,0.00,,---,0.00,VWS V14.00,2013-03-09 04:15:00,
2013-03-08 23:20:00,38.7,24.4,30.29,North,350,0.0,0.0,56,0.00,,---,0.00,VWS V14.00,2013-03-09 04:20:00,
2013-03-08 23:25:00,38.7,23.5,30.29,North,351,0.0,0.0,54,0.00,,---,0.00,VWS V14.00,2013-03-09 04:25:00,
2013-03-08 23:30:00,38.7,23.5,30.29,North,350,0.0,0.0,54,0.00,,---,0.00,VWS V14.00,2013-03-09 04:30:00,
2013-03-08 23:35:00,38.6,23.0,30.29,North,350,0.0,0.0,53,0.00,,---,0.00,VWS V14.00,2013-03-09 04:35:00,
2013-03-08 23:40:00,38.6,23.4,30.29,North,351,0.0,0.0,54,0.00,,---,0.00,VWS V14.00,2013-03-09 04:40:00,
2013-03-08 23:45:00,38.6,23.4,30.30,North,351,0.0,0.0,54,0.00,,---,0.00,VWS V14.00,2013-03-09 04:45:00,
2013-03-08 23:50:00,38.6,23.8,30.29,North,351,0.0,0.0,55,0.00,,---,0.00,VWS V14.00,2013-03-09 04:50:00,
2013-03-08 23:55:00,38.6,23.8,30.29,North,350,0.0,0.0,55,0.00,,---,0.00,VWS V14.00,2013-03-09 04:55:00,